When you browse on this site, cookies collect data to enhance your experience and personalize the content and advertising you see.
Visit our Privacy Policy to learn more. By continuing to use the site, you agree to this use of cookies and data.
  • In Österreich
  • Länderverzeichnis
  • Für 7 Tage
  • Wassertemperatur
  • Satellitenkarten
  • Wetterkarte
  • News
  • Widgets
  • user-avatar
    Anmelden

    Stündliche Wetter Algier

    Heute, 16 Januar, Mittwoch

    Zeit Temperatur Niederschläge Wind Luftdruck Luftfeuchtigkeit
    00:00 +12°C° 0 mm 2 m/S 752 mmHg 74%
    01:00 +12°C° 0 mm 2 m/S 752 mmHg 72%
    02:00 +12°C° 0 mm 2 m/S 751 mmHg 69%
    03:00 +12°C° 0 mm 2 m/S 751 mmHg 67%
    04:00 +12°C° 0 mm 2 m/S 751 mmHg 64%
    05:00 +10°C° 0 mm 2 m/S 751 mmHg 61%
    06:00 +10°C° 0 mm 2 m/S 751 mmHg 56%
    07:00 +12°C° 0 mm 2 m/S 751 mmHg 53%
    08:00 +13°C° 0 mm 2 m/S 751 mmHg 50%
    09:00 +14°C° 0 mm 2 m/S 751 mmHg 48%
    10:00 +15°C° 0 mm 2 m/S 751 mmHg 44%
    11:00 +16°C° 0 mm 1 m/S 751 mmHg 41%
    12:00 +19°C° 0 mm 1 m/S 751 mmHg 38%
    13:00 +19°C° 0 mm 1 m/S 751 mmHg 38%
    14:00 +19°C° 0 mm 1 m/S 750 mmHg 39%
    15:00 +19°C° 0 mm 1 m/S 750 mmHg 40%
    16:00 +16°C° 0 mm 1 m/S 750 mmHg 45%
    17:00 +15°C° 0 mm 1 m/S 750 mmHg 50%
    18:00 +14°C° 0 mm 1 m/S 750 mmHg 56%
    19:00 +14°C° 0 mm 1 m/S 750 mmHg 56%
    20:00 +13°C° 0 mm 1 m/S 750 mmHg 55%
    21:00 +13°C° 0 mm 1 m/S 750 mmHg 55%
    22:00 +12°C° 0 mm 2 m/S 750 mmHg 55%
    23:00 +12°C° 0 mm 2 m/S 750 mmHg 54%

    Morgen, 17 Januar, Donnerstag

    Zeit Temperatur Niederschläge Wind Luftdruck Luftfeuchtigkeit
    00:00 +12°C° 0 mm 2 m/S 750 mmHg 54%
    01:00 +11°C° 0 mm 3 m/S 750 mmHg 54%
    02:00 +10°C° 0 mm 3 m/S 750 mmHg 55%
    03:00 +10°C° 0 mm 3 m/S 750 mmHg 55%
    04:00 +10°C° 0 mm 3 m/S 749 mmHg 55%
    05:00 +10°C° 0 mm 3 m/S 749 mmHg 56%
    06:00 +10°C° 0 mm 3 m/S 749 mmHg 56%
    07:00 +10°C° 0 mm 3 m/S 749 mmHg 55%
    08:00 +11°C° 0 mm 3 m/S 749 mmHg 53%
    09:00 +12°C° 0 mm 3 m/S 750 mmHg 52%
    10:00 +13°C° 0 mm 3 m/S 749 mmHg 48%
    11:00 +14°C° 0 mm 3 m/S 749 mmHg 44%
    12:00 +17°C° 0 mm 2 m/S 749 mmHg 39%
    13:00 +17°C° 0 mm 3 m/S 749 mmHg 41%
    14:00 +17°C° 0 mm 3 m/S 748 mmHg 42%
    15:00 +17°C° 0 mm 3 m/S 748 mmHg 43%
    16:00 +16°C° 0 mm 3 m/S 748 mmHg 50%
    17:00 +13°C° 0 mm 3 m/S 748 mmHg 57%
    18:00 +13°C° 0 mm 2 m/S 748 mmHg 64%
    19:00 +13°C° 0.1 mm 2 m/S 749 mmHg 65%
    20:00 +12°C° 0.1 mm 3 m/S 749 mmHg 66%
    21:00 +12°C° 0.1 mm 3 m/S 749 mmHg 67%
    22:00 +11°C° 0.1 mm 3 m/S 749 mmHg 66%
    23:00 +11°C° 0.1 mm 3 m/S 749 mmHg 66%

    übermorgen, 18 Januar, Freitag

    Zeit Temperatur Niederschläge Wind Luftdruck Luftfeuchtigkeit
    00:00 +11°C° 0.1 mm 3 m/S 749 mmHg 65%
    01:00 +11°C° 0.1 mm 3 m/S 749 mmHg 65%
    02:00 +11°C° 0.1 mm 4 m/S 749 mmHg 64%
    03:00 +11°C° 0.1 mm 4 m/S 749 mmHg 64%
    04:00 +10°C° 0.1 mm 4 m/S 749 mmHg 65%
    05:00 +10°C° 0.1 mm 4 m/S 749 mmHg 66%
    06:00 +10°C° 0.1 mm 4 m/S 749 mmHg 66%
    07:00 +11°C° 0 mm 4 m/S 749 mmHg 66%
    08:00 +10°C° 0 mm 5 m/S 750 mmHg 65%
    09:00 +12°C° 0 mm 5 m/S 750 mmHg 64%
    10:00 +13°C° 0 mm 5 m/S 750 mmHg 62%
    11:00 +14°C° 0 mm 5 m/S 750 mmHg 59%
    12:00 +14°C° 0 mm 5 m/S 750 mmHg 57%
    13:00 +14°C° 0.1 mm 5 m/S 749 mmHg 57%
    14:00 +14°C° 0.1 mm 6 m/S 749 mmHg 57%
    15:00 +14°C° 0.1 mm 6 m/S 749 mmHg 57%
    16:00 +13°C° 0.2 mm 5 m/S 749 mmHg 62%
    17:00 +13°C° 0.2 mm 5 m/S 750 mmHg 66%
    18:00 +12°C° 0.2 mm 5 m/S 750 mmHg 70%
    19:00 +12°C° 0.1 mm 4 m/S 750 mmHg 72%
    20:00 +11°C° 0.1 mm 4 m/S 751 mmHg 73%
    21:00 +11°C° 0.1 mm 4 m/S 751 mmHg 75%
    22:00 +11°C° 0.1 mm 4 m/S 751 mmHg 75%
    23:00 +11°C° 0.1 mm 4 m/S 751 mmHg 75%

    19 Januar, Samstag

    Zeit Temperatur Niederschläge Wind Luftdruck Luftfeuchtigkeit
    00:00 +10°C° 0.1 mm 4 m/S 751 mmHg 75%
    01:00 +10°C° 0.2 mm 4 m/S 751 mmHg 74%
    02:00 +10°C° 0.2 mm 4 m/S 750 mmHg 73%
    03:00 +10°C° 0.2 mm 4 m/S 750 mmHg 72%
    04:00 +10°C° 0.2 mm 4 m/S 750 mmHg 72%
    05:00 +10°C° 0.2 mm 4 m/S 750 mmHg 71%
    06:00 +10°C° 0.2 mm 4 m/S 750 mmHg 70%
    07:00 +11°C° 0 mm 4 m/S 751 mmHg 67%
    08:00 +11°C° 0 mm 4 m/S 751 mmHg 64%
    09:00 +12°C° 0 mm 4 m/S 751 mmHg 60%
    10:00 +13°C° 0 mm 4 m/S 751 mmHg 57%
    11:00 +14°C° 0 mm 4 m/S 751 mmHg 54%
    12:00 +14°C° 0 mm 5 m/S 750 mmHg 52%
    13:00 +14°C° 0 mm 5 m/S 750 mmHg 53%
    14:00 +14°C° 0 mm 5 m/S 750 mmHg 54%
    15:00 +14°C° 0 mm 6 m/S 749 mmHg 55%
    16:00 +14°C° 0 mm 5 m/S 749 mmHg 57%
    17:00 +13°C° 0 mm 5 m/S 749 mmHg 59%
    18:00 +12°C° 0 mm 5 m/S 749 mmHg 61%
    19:00 +12°C° 0 mm 5 m/S 749 mmHg 63%
    20:00 +12°C° 0 mm 5 m/S 749 mmHg 64%
    21:00 +12°C° 0 mm 5 m/S 749 mmHg 66%
    22:00 +10°C° 0 mm 5 m/S 749 mmHg 66%
    23:00 +10°C° 0 mm 5 m/S 748 mmHg 67%

    20 Januar, Sonntag

    Zeit Temperatur Niederschläge Wind Luftdruck Luftfeuchtigkeit
    00:00 +10°C° 0 mm 5 m/S 748 mmHg 68%
    01:00 +10°C° 0.3 mm 5 m/S 747 mmHg 69%
    02:00 +10°C° 0.3 mm 5 m/S 746 mmHg 71%
    03:00 +10°C° 0.3 mm 5 m/S 746 mmHg 73%
    04:00 +10°C° 0.9 mm 5 m/S 746 mmHg 73%
    05:00 +11°C° 0.9 mm 6 m/S 745 mmHg 74%
    06:00 +11°C° 0.9 mm 6 m/S 745 mmHg 74%
    07:00 +11°C° 0.2 mm 6 m/S 745 mmHg 72%
    08:00 +13°C° 0.2 mm 6 m/S 746 mmHg 71%
    09:00 +13°C° 0.2 mm 6 m/S 746 mmHg 70%
    10:00 +14°C° 0.1 mm 6 m/S 746 mmHg 68%
    11:00 +14°C° 0.1 mm 6 m/S 746 mmHg 66%
    12:00 +15°C° 0.1 mm 6 m/S 746 mmHg 64%
    13:00 +15°C° 0.4 mm 6 m/S 746 mmHg 67%
    14:00 +14°C° 0.4 mm 6 m/S 746 mmHg 70%
    15:00 +14°C° 0.4 mm 6 m/S 746 mmHg 73%
    16:00 +13°C° 0.9 mm 6 m/S 746 mmHg 76%
    17:00 +11°C° 0.9 mm 6 m/S 747 mmHg 79%
    18:00 +10°C° 0.9 mm 6 m/S 747 mmHg 82%
    19:00 +10°C° 1.6 mm 6 m/S 748 mmHg 83%
    20:00 +10°C° 1.6 mm 6 m/S 749 mmHg 85%
    21:00 +10°C° 1.6 mm 6 m/S 749 mmHg 87%
    22:00 +10°C° 1.8 mm 6 m/S 749 mmHg 86%
    23:00 +10°C° 1.8 mm 5 m/S 750 mmHg 84%

    21 Januar, Montag

    Zeit Temperatur Niederschläge Wind Luftdruck Luftfeuchtigkeit
    00:00 +10°C° 1.8 mm 5 m/S 750 mmHg 83%
    01:00 +10°C° 0.6 mm 5 m/S 750 mmHg 81%
    02:00 +10°C° 0.6 mm 5 m/S 750 mmHg 78%
    03:00 +11°C° 0.6 mm 4 m/S 750 mmHg 76%
    04:00 +11°C° 0.3 mm 4 m/S 750 mmHg 75%
    05:00 +11°C° 0.3 mm 3 m/S 750 mmHg 75%
    06:00 +10°C° 0.3 mm 2 m/S 751 mmHg 75%
    07:00 +10°C° 1.1 mm 2 m/S 751 mmHg 75%
    08:00 +10°C° 1.1 mm 2 m/S 751 mmHg 76%
    09:00 +12°C° 1.1 mm 1 m/S 752 mmHg 77%
    10:00 +12°C° 0.7 mm 1 m/S 752 mmHg 74%
    11:00 +12°C° 0.7 mm 2 m/S 751 mmHg 70%
    12:00 +13°C° 0.7 mm 2 m/S 751 mmHg 67%
    13:00 +13°C° 0.7 mm 2 m/S 751 mmHg 67%
    14:00 +13°C° 0.7 mm 2 m/S 751 mmHg 66%
    15:00 +13°C° 0.7 mm 2 m/S 750 mmHg 66%
    16:00 +12°C° 0.5 mm 2 m/S 751 mmHg 68%
    17:00 +12°C° 0.5 mm 1 m/S 751 mmHg 71%
    18:00 +11°C° 0.5 mm 1 m/S 751 mmHg 73%
    19:00 +10°C° 0.4 mm 2 m/S 751 mmHg 74%
    20:00 +10°C° 0.4 mm 2 m/S 751 mmHg 74%
    21:00 +10°C° 0.4 mm 3 m/S 751 mmHg 74%
    22:00 +10°C° 0.2 mm 3 m/S 751 mmHg 75%
    23:00 +9°C° 0.2 mm 3 m/S 751 mmHg 76%
    Mehr zeigen